Regional Weather Roundup
Issued by NWS

Home | Current Version | Previous Version | Graphics & Text | Print | Product List | Glossary On
Versions: 1 2 3 4 5 6 7 8 9 10 11 12 13 14 15 16 17 18 19 20 21 22 23 24 25 26 27 28 29 30 31 32 33 34 35 36 37 38 39 40 41 42 43 44 45 46 47 48 49 50
000
ASUS45 KBOU 250507
RWRCO

WEATHER ROUNDUP FOR COLORADO
NATIONAL WEATHER SERVICE DENVER/BOULDER CO
1100 PM MDT SUN MAY 24 2015

NOTE: "FAIR" INDICATES FEW OR NO CLOUDS BELOW 12000 FEET WITH NO
SIGNIFICANT WEATHER AND/OR OBSTRUCTIONS TO VISIBILITY.

COZ001>005-013-030-031-250600-
...NORTHWEST COLORADO...

CITY           SKY/WX    TMP DP  RH WIND       PRES   REMARKS
CRAIG          LGT RAIN  44  41  89 S3        29.97S
HAYDEN         CLOUDY    43  37  81 E3        29.98S
MEEKER         CLOUDY    43  40  89 CALM      29.98S
MOUNT WERNER   NOT AVBL
STEAMBOAT SPGS CLOUDY    39  37  93 E3        29.99R
WALDEN         CLOUDY    37  32  81 CALM      29.98S
$$

COZ006>008-011-250600-
...WEST CENTRAL VALLEYS...

CITY           SKY/WX    TMP DP  RH WIND       PRES   REMARKS
GRAND JUNCTION CLOUDY    50  45  83 NE5       29.94R
MONTROSE       MOCLDY    48  45  89 SE8       29.97S
EAGLE          CLOUDY    45  37  76 W7        29.99S
RIFLE          CLOUDY    46  43  89 SE3       29.98S
DELTA          CLOUDY    53  44  72 MISG      29.95S
NUCLA          MOCLDY    48  37  66 E7        29.98S
$$

COZ017>023-064>068-250600-
...SOUTHWEST COLORADO...

CITY           SKY/WX    TMP DP  RH WIND       PRES   REMARKS
DURANGO        PTCLDY    44  36  73 E6        29.98R
CORTEZ         PTCLDY    43  40  89 E5        29.97R
PAGOSA SPRINGS PTCLDY    40  39  99 CALM      30.04R
TELLURIDE      PTCLDY    38  37  94 CALM      30.08S
WOLF CREEK PAS NOT AVBL
$$

COZ009-010-012-014-032>034-037-058>063-250600-
...CENTRAL COLORADO...

CITY           SKY/WX    TMP DP  RH WIND       PRES   REMARKS
ASPEN          LGT RAIN  35  33  92 CALM      30.00S
BUENA VISTA    MOCLDY    45  31  59 NW10      29.97R
COPPER MTN     SNOW      32  28  86 W16       30.07F VSB 1/4 WCI  21
BERTHOUD PASS  SNOW      23  14  68 NW9       30.09S VSB 1/2 WCI  13
COTTONWOOD PAS MOCLDY    41  30  65 N5        30.02S
GUNNISON       MOCLDY    43  32  65 SW9       30.01F
KREMMLING      DRIZZLE   37  34  87 E5        30.00S
LEADVILLE      LGT SNOW  33  31  92 CALM      30.02S FOG
MONARCH PASS   FOG       28  27  93 MISG      30.19R VSB<1/4
SALIDA         MOCLDY    48  34  58 SW14      30.02S
SUNLIGHT       LGT SNOW  32  32 100 CALM      30.11S
WILKERSON PASS LGT SNOW  32  30  93 MISG      30.09S
$$

COZ069>075-250600-
...SAN LUIS VALLEY/SANGRE DE CRISTO MOUNTAINS...

CITY           SKY/WX    TMP DP  RH WIND       PRES   REMARKS
ALAMOSA        PTCLDY    39  36  89 NE5       29.98R
LA VETA PASS   PTCLDY   N/A N/A N/A MISG      30.05R
SAGUACHE       CLOUDY    41  37  87 CALM      30.00S
$$

COZ035-036-038>040-250600-
...NORTHERN COLORADO FRONT RANGE...

CITY           SKY/WX    TMP DP  RH WIND       PRES   REMARKS
DENVER INTL AP MOCLDY    47  44  90 N8        29.89R
DMNS CITY PARK   N/A     49  40  69 NW2G8     29.90S
AURORA         MOCLDY    46  43  88 NW8       29.90R
FRONT RANGE AP NOT AVBL
ERIE MUNI ARPT PTCLDY    46  42  86 W3        29.89S
BOULDER MUN AP PTCLDY    50  43  76 CALM      29.89F
CENTENNIAL     PTCLDY    48  41  76 N7        29.91R
BROOMFIELD     NOT AVBL
FORT COLLINS   MOCLDY    48  43  81 N6        29.89S
LONGMONT       MOCLDY    49  44  81 CALM      29.90F
$$

COZ041-046-047-076>085-087-088-250600-
...PIKES PEAK/PALMER DIVIDE AND SOUTHERN FOOTHILLS...

CITY           SKY/WX    TMP DP  RH WIND       PRES   REMARKS
COLO. SPRINGS  MOCLDY    48  41  76 N8        29.91R
A. F. ACADEMY  PTCLDY    44  40  88 N5        29.92R
ELLICOTT       NOT AVBL
FALCON         PTCLDY    43  37  79 NE6       29.94R
FORT CARSON    CLOUDY    47  43  85 W6        29.89R
LIMON          CLOUDY    45  43  93 N6        29.88R
MONUMENT HILL  NOT AVBL
TRINIDAD       PTCLDY    47  41  80 CALM      29.89R
$$

COZ042>045-048>051-090-091-250600-
...NORTHEAST COLORADO...

CITY           SKY/WX    TMP DP  RH WIND       PRES   REMARKS
GREELEY ARPT   MOCLDY    48  43  81 NW8       29.87S
AKRON          CLOUDY    47  46  97 NW8       29.84S
BURLINGTON     CLOUDY    51  48  89 CALM      29.84R
WRAY           CLOUDY    52  52 100 SW3       29.82S
STERLING       CLOUDY    52  48  87 N7        29.81F
HOLYOKE        NOT AVBL
FORT MORGAN    CLOUDY    50  45  82 N7        29.85S
$$

COZ086-089-092>099-250600-
...SOUTHEAST COLORADO...

CITY           SKY/WX    TMP DP  RH WIND       PRES   REMARKS
PUEBLO         MOCLDY    51  47  86 NW7       29.84S
LA JUNTA       PTCLDY    50  48  93 NW3       29.84R
LAMAR          PTCLDY    50  48  93 E5        29.81R
SPRINGFIELD      N/A     47  45  93 W6        29.83R
$$



USA.gov is the U.S. government's official web portal to all federal, state and local government web resources and services.